Flag for Germany Weather past 2 weeks in Walsrode, Lower Saxony, Germany

Now
54 °F

Broken clouds.


Feels Like: 49 °F
Forecast: 46 / 56 °F
Wind: 14 mph from North

Location: Fassberg

Current Time: Oct 22, 2014 at 2:45:37 PM

Latest Report: Oct 22, 2014 at 1:20 PM


Visibility: N/A

Pressure: 29.71 "Hg

Humidity: 82%

Dew point: 48 °F

Location of WalsrodeLocation

Historic Weather in Walsrode — Graph

°F

Walsrode temperature yesterday

Maximum temperature yesterday: 55 °F (at 1:20 PM)
Minimum temperature yesterday: 48 °F (at 11:20 PM)
Average temperature yesterday: 53 °F

Past Weeks' High & Low Weather Summary

 TemperatureHumidityPressure
High73 °F (Oct 19, 3:20 PM)100% (Oct 11, 3:20 AM)30.15 "Hg (Oct 11, 3:20 AM)
Low45 °F (Oct 14, 7:20 AM)49% (Oct 14, 3:20 PM)29.42 "Hg (Oct 21, 6:20 PM)
Average56 °F87%29.81 "Hg
* Reported Oct 7 1:20 PM — Oct 22 1:20 PM, Walsrode, Weather by CustomWeather, © 2014

Note: Actual official high and low records may vary slightly from our data, if they occured in-between our weather recording intervals... More about our weather records

Advertising

Walsrode weather history for previous 24 hours

 ConditionsComfort  
Time TempWeatherWind HumidityBarometerVisibility
1:20 PM
Oct 22
54 °FBroken clouds.14 mph82%29.71 "HgN/A
12:20 PM52 °FBroken clouds.14 mph88%29.68 "HgN/A
11:20 AM48 °FBroken clouds.15 mph94%29.65 "Hg5 mi
10:50 AM46 °FFog.14 mph93%29.65 "Hg3 mi
10:20 AM46 °FDrizzle. Fog.15 mph93%29.62 "Hg2 mi
9:20 AM46 °FDrizzle. Fog.16 mph93%29.62 "Hg2 mi
8:20 AM46 °FDrizzle. Fog.16 mph93%29.62 "Hg2 mi
7:45 AM46 °FDrizzle. Fog.14 mph93%29.62 "Hg2 mi
7:20 AM46 °FDrizzle. Fog.13 mph93%29.62 "Hg3 mi
6:20 AM48 °FPartly cloudy.14 mph87%29.59 "Hg4 mi
5:20 AM46 °FPassing clouds.12 mph93%29.59 "Hg4 mi
4:20 AM46 °FLight rain. Fog.13 mph93%29.59 "Hg3 mi
3:20 AM46 °FLight rain. Passing clouds.16 mph87%29.59 "HgN/A
2:20 AM46 °FPassing clouds.15 mph87%29.56 "HgN/A
1:20 AM48 °FPassing clouds.15 mph82%29.56 "HgN/A
12:20 AM48 °FPassing clouds.13 mph87%29.53 "HgN/A
11:20 PM
Oct 21
48 °FPassing clouds.15 mph87%29.50 "HgN/A
10:20 PM50 °FLight rain. Passing clouds.13 mph88%29.47 "HgN/A
9:20 PM50 °FPartly cloudy.10 mph94%29.45 "HgN/A
8:20 PM52 °FPassing clouds.10 mph94%29.42 "HgN/A
7:20 PM52 °FPartly cloudy.12 mph94%29.42 "Hg5 mi
6:20 PM52 °FDrizzle. Broken clouds.10 mph94%29.42 "Hg5 mi
5:20 PM52 °FDrizzle. Fog.14 mph94%29.45 "Hg2 mi
4:20 PM54 °FBroken clouds.13 mph88%29.47 "HgN/A
3:20 PM54 °FBroken clouds.12 mph88%29.50 "HgN/A
2:20 PM54 °FBroken clouds.12 mph88%29.56 "HgN/A
Weather by CustomWeather, © 2014

See weather overviewHow to use our weather pages